Home > Weather > Koror > Past weeks

Flag for Palau Past Weather in Koror, Palau — Yesterday and Last 2 Weeks

Now
79 °F

Cloudy.


Feels Like: 83 °F
Forecast: 81 / 87 °F
Wind: No wind

Location: Koror / Palau Island

Current Time: May 31, 2016 at 7:30:26 AM

Latest Report: May 31, 2016 at 6:50 AM


Visibility: 15 mi

Pressure: 29.86 "Hg

Humidity: 94%

Dew Point: 77 °F

Location of KororLocation

Past Weather in Koror — Graph

°F

Koror Temperature Yesterday

Maximum temperature yesterday: 90 °F (at 12:50 PM)
Minimum temperature yesterday: 75 °F (at 5:54 AM)
Average temperature yesterday: 82 °F

High & Low Weather Summary for the Past Weeks

 TemperatureHumidityPressure
High90 °F (May 27, 10:50 AM)100% (May 17, 9:53 PM)29.92 "Hg (May 17, 9:53 PM)
Low75 °F (May 25, 2:53 AM)20% (May 24, 1:50 AM)29.73 "Hg (May 17, 4:50 PM)
Average81 °F89%29.83 "Hg
* Reported May 16 5:55 AM — May 31 5:54 AM, Koror, Weather by CustomWeather, © 2016

Note: Actual official high and low records may vary slightly from our data, if they occured in-between our weather recording intervals... More about our weather records

Advertising

Koror Weather History for the Previous 24 Hours

Scroll right to see more
 ConditionsComfort  
Time TempWeatherWind HumidityBarometerVisibility
5:54 AM
Tue, May 31
79 °FCloudy.3 mph94%29.83 "Hg15 mi
4:52 AM79 °FPartly cloudy.3 mph94%29.81 "Hg15 mi
3:50 AM79 °FPartly cloudy.5 mph94%29.82 "Hg15 mi
2:54 AM79 °FPassing clouds.6 mph94%29.83 "Hg15 mi
1:50 AM79 °FPassing clouds.No wind94%29.83 "Hg15 mi
12:54 AM77 °FPassing clouds.No wind100%29.85 "Hg15 mi
11:50 PM
Mon, May 30
79 °FPassing clouds.No wind94%29.87 "Hg15 mi
10:50 PM79 °FPassing clouds.6 mph94%29.89 "Hg15 mi
9:50 PM81 °FPartly cloudy.No wind89%29.88 "Hg15 mi
8:50 PM79 °FPartly cloudy.No wind94%29.87 "Hg15 mi
7:55 PM81 °FPartly cloudy.No wind94%29.86 "Hg15 mi
6:50 PM82 °FPartly cloudy.5 mph84%29.84 "Hg15 mi
5:50 PM84 °FBroken clouds.6 mph79%29.82 "Hg15 mi
4:50 PM86 °FPartly sunny.6 mph75%29.80 "Hg15 mi
3:50 PM86 °FMostly cloudy.8 mph79%29.78 "Hg15 mi
2:50 PM88 °FMostly cloudy.8 mph75%29.78 "Hg15 mi
1:50 PM86 °FMostly cloudy.7 mph79%29.80 "Hg15 mi
12:50 PM90 °FMostly cloudy.10 mph71%29.82 "Hg15 mi
11:50 AM88 °FPartly sunny.10 mph75%29.83 "Hg15 mi
10:50 AM88 °FCloudy.9 mph75%29.85 "Hg15 mi
9:50 AM86 °FCloudy.7 mph79%29.86 "Hg15 mi
8:54 AM86 °FCloudy.8 mph79%29.85 "Hg14 mi
7:55 AM84 °FBroken clouds.7 mph84%29.86 "Hg14 mi
Weather by CustomWeather, © 2016

See weather overviewHow to use our weather pages